Location: Sewell
(39.7660°N, 75.1450°W)
Time: 15:41:51
(UTC-04:00)

ISS - Visible Passes

Search period start: 25 October 2014 00:00
Search period end: 03 November 2014 23:00
Orbit: 412 x 416 km, 51.6° (Epoch: 25 October)

Date Brightness Start Highest point End Pass type
(mag) Time Alt. Az. Time Alt. Az. Time Alt. Az.
25 Oct -2.9 18:51:23 10° NW 18:54:38 46° NNE 18:57:22 13° ESE visible
25 Oct -0.5 20:28:40 10° W 20:30:15 17° WSW 20:30:15 17° WSW visible
26 Oct -1.7 19:38:58 10° WNW 19:42:01 33° SW 19:43:44 20° S visible
27 Oct -2.8 18:49:34 10° WNW 18:52:52 63° SW 18:56:10 10° SE visible
28 Oct -0.1 19:38:31 10° WSW 19:39:53 12° SW 19:41:15 10° SSW visible
29 Oct -0.6 18:48:09 10° W 18:50:47 22° SW 18:53:24 10° S visible
